TimeEST,TemperatureF,Dew PointF,Humidity,Sea Level PressureIn,VisibilityMPH,Wind Direction,Wind SpeedMPH,Gust SpeedMPH,PrecipitationIn,Events,Conditions,WindDirDegrees,DateUTC
12:51 AM,12.0,8.1,84,30.64,10.0,Calm,Calm,-,N/A,,Overcast,0,2012-12-01 05:51:00
1:51 AM,12.9,8.1,81,30.62,10.0,Calm,Calm,-,N/A,,Overcast,0,2012-12-01 06:51:00
2:15 AM,12.2,8.6,85,30.55,10.0,NE,3.5,-,N/A,,Overcast,50,2012-12-01 07:15:00
2:51 AM,12.0,8.1,84,30.64,10.0,NNE,3.5,-,N/A,,Overcast,30,2012-12-01 07:51:00
3:51 AM,12.0,8.1,84,30.63,10.0,Calm,Calm,-,N/A,,Overcast,0,2012-12-01 08:51:00
4:51 AM,14.0,10.9,88,30.63,9.0,Calm,Calm,-,N/A,,Overcast,0,2012-12-01 09:51:00
5:51 AM,12.9,10.9,92,30.65,5.0,NE,3.5,-,0.00,Snow,Light Snow,50,2012-12-01 10:51:00
6:51 AM,14.0,10.9,88,30.67,6.0,Calm,Calm,-,0.00,Snow,Light Snow,0,2012-12-01 11:51:00
7:51 AM,16.0,12.9,88,30.66,5.0,Calm,Calm,-,0.00,Snow,Light Snow,0,2012-12-01 12:51:00
8:51 AM,19.0,14.0,81,30.66,1.8,South,4.6,-,0.00,Snow,Light Snow,170,2012-12-01 13:51:00
8:58 AM,19.4,14.0,80,30.57,2.5,SSE,4.6,-,0.00,Snow,Light Snow,150,2012-12-01 13:58:00
9:12 AM,19.4,15.8,86,30.58,1.8,SE,4.6,-,0.00,Snow,Light Snow,140,2012-12-01 14:12:00
9:20 AM,17.6,15.8,93,30.58,2.5,Calm,Calm,-,0.00,Snow,Light Snow,0,2012-12-01 14:20:00
9:51 AM,18.0,15.1,88,30.67,1.8,Calm,Calm,-,0.00,Snow,Light Snow,0,2012-12-01 14:51:00
10:23 AM,21.2,17.6,86,30.58,2.5,South,8.1,-,0.01,Snow,Light Snow,170,2012-12-01 15:23:00
10:51 AM,21.0,17.1,85,30.63,3.0,South,9.2,-,0.01,Snow,Light Snow,180,2012-12-01 15:51:00
11:00 AM,21.2,17.6,86,30.56,2.5,South,5.8,-,0.00,Snow,Light Snow,180,2012-12-01 16:00:00
11:18 AM,21.2,17.6,86,30.55,3.0,South,5.8,-,0.00,Snow,Light Snow,180,2012-12-01 16:18:00
11:51 AM,21.9,18.0,85,30.61,2.0,South,8.1,-,0.00,Snow,Light Snow,170,2012-12-01 16:51:00
11:59 AM,21.2,17.6,86,30.53,1.2,South,8.1,-,0.00,Snow,Light Snow,180,2012-12-01 16:59:00
12:08 PM,21.2,17.6,86,30.52,1.0,South,5.8,-,0.00,Snow,Light Snow,190,2012-12-01 17:08:00
12:18 PM,21.2,19.4,93,30.52,1.5,South,6.9,-,0.00,Snow,Light Snow,180,2012-12-01 17:18:00
12:31 PM,23.0,19.4,86,30.52,2.0,South,5.8,-,0.00,Snow,Light Snow,190,2012-12-01 17:31:00
12:41 PM,21.2,19.4,93,30.52,1.5,South,9.2,-,0.00,Snow,Light Snow,170,2012-12-01 17:41:00
12:51 PM,23.0,19.0,85,30.58,1.2,SSE,6.9,-,0.00,Snow,Light Snow,160,2012-12-01 17:51:00
1:02 PM,23.0,19.4,86,30.51,1.5,SSE,6.9,-,0.00,Snow,Light Snow,160,2012-12-01 18:02:00
1:21 PM,23.0,19.4,86,30.51,2.0,South,6.9,-,0.00,Snow,Light Snow,170,2012-12-01 18:21:00
1:34 PM,24.8,19.4,80,30.51,4.0,South,4.6,-,0.00,Snow,Light Snow,190,2012-12-01 18:34:00
1:51 PM,24.1,19.9,84,30.59,3.0,South,6.9,-,0.00,Snow,Light Snow,170,2012-12-01 18:51:00
2:51 PM,24.1,19.9,84,30.58,8.0,South,8.1,-,0.01,,Overcast,180,2012-12-01 19:51:00
3:51 PM,25.0,21.0,85,30.59,6.0,South,8.1,-,0.00,Snow,Light Snow,180,2012-12-01 20:51:00
4:26 PM,24.8,21.2,86,30.51,9.0,South,6.9,-,0.00,,Overcast,180,2012-12-01 21:26:00
4:51 PM,25.0,21.9,88,30.58,7.0,South,6.9,-,0.00,,Overcast,170,2012-12-01 21:51:00
5:03 PM,24.8,21.2,86,30.50,8.0,SSE,9.2,-,N/A,,Overcast,160,2012-12-01 22:03:00
5:51 PM,25.0,21.9,88,30.57,10.0,South,5.8,-,N/A,,Overcast,180,2012-12-01 22:51:00
6:11 PM,24.8,21.2,86,30.49,10.0,South,10.4,-,N/A,,Overcast,170,2012-12-01 23:11:00
6:44 PM,24.8,23.0,93,30.50,10.0,South,8.1,-,N/A,,Overcast,190,2012-12-01 23:44:00
6:51 PM,25.0,23.0,92,30.57,10.0,South,3.5,-,N/A,,Overcast,190,2012-12-01 23:51:00
7:51 PM,25.0,24.1,96,30.56,9.0,South,5.8,-,N/A,,Overcast,180,2012-12-02 00:51:00
8:51 PM,26.1,24.1,92,30.53,6.0,South,8.1,-,N/A,,Overcast,180,2012-12-02 01:51:00
9:51 PM,27.0,25.0,92,30.52,8.0,SSW,9.2,-,N/A,,Overcast,200,2012-12-02 02:51:00
10:51 PM,27.0,26.1,96,30.51,5.0,South,8.1,-,N/A,,Overcast,190,2012-12-02 03:51:00
11:51 PM,28.0,27.0,96,30.50,10.0,Variable,3.5,-,N/A,,Overcast,0,2012-12-02 04:51:00